Location: Sudbury
(46.5221°N, 80.9530°W)
Time: 06:10:49
(UTC-05:00)

ISS - Visible Passes

Search period start: 23 November 2017 00:00
Search period end: 03 December 2017 00:00
Orbit: 402 x 407 km, 51.6° (Epoch: 23 November)

Date Brightness Start Highest point End Pass type
(mag) Time Alt. Az. Time Alt. Az. Time Alt. Az.
26 Nov -1.4 18:34:56 10° S 18:35:51 14° SSE 18:35:51 14° SSE visible
27 Nov -1.1 19:17:43 10° SW 19:18:37 17° SW 19:18:37 17° SW visible
28 Nov -2.9 18:25:41 10° SSW 18:28:36 34° SSE 18:28:36 34° SSE visible
29 Nov -2.1 17:34:00 10° S 17:36:30 20° SE 17:38:30 13° E visible
29 Nov -1.8 19:09:25 10° WSW 19:11:10 29° WSW 19:11:10 29° WSW visible
30 Nov -3.9 18:17:03 10° SW 18:20:19 71° SSE 18:21:00 50° E visible
01 Dec -3.1 17:24:54 10° SW 17:28:01 41° SE 17:30:46 12° ENE visible
01 Dec -2.1 19:01:18 10° W 19:03:25 32° WNW 19:03:25 32° WNW visible
02 Dec -3.6 18:08:45 10° WSW 18:12:01 64° NNW 18:13:09 36° NE visible
